sat.trackr.live / text

‹ back to catalog

EMISAR

NORAD 68427 · 2026-067M

PAYLOAD ACTIVE UNKNOWN

§ Identity

Operator
Country
ROM
Launch date
2026-03-30
Launch site
AFWTR
Launch vehicle
Mass (kg)
RCS (m²)

External: N2YO · Heavens-Above · Gunter

§ Orbital elements

Epoch: 2026-09-18T02:56:38.717376Z

Period
94.69 min
Inclination
97.4647°
Eccentricity
0.0002997
Mean motion
15.20721841 rev/d
Perigee alt
501.6 km
Apogee alt
505.7 km
Semi-major
6,881.8 km
B*
3.4790e-4
RAAN
218.6328°
Arg perigee
59.7703°
Mean anomaly
300.3828°
Rev number
2,606

§ Raw data

EMISAR1 68427U 26067M   26261.12267034  .00007586  00000+0  34790-3 0  99912 68427  97.4647 218.6328 0002997  59.7703 300.3828 15.20721841 26063

JSON: /api/v1/satellites/68427 · /tle

For live sub-satellite position, see the globe view (requires WebGL).

§ Visibility from observer

Set your observer location to see the next 7 days of passes ≥ 10°. The values pass through the URL so the page stays shareable.

No JS? Fill the form by hand. The geolocation button needs JavaScript.